Showing default

ECHOSTAR 105/SES 11, 42967

Orbit data source: Space-Track

ECHOSTAR 105/SES 11, 42967 is a payload satellite owned by SES (LU) in GEO that was launched on Wed, 11 Oct 2017 UTC via an FALCON 9 launch vehicle from the Air Force Eastern Test Range (AFETR). Payload-class satellites include a variety of spacecraft equipped with specific instruments for various scientific and technological missions. These include communications satellites like Starlink; space stations such as the ISS; scientific satellites like the Hubble; Earth observation satellites from companies like Planet Labs, Umbra, and HawkEye 360; GPS; miniature CubeSats for education and research; and military/defense satellites.

Loading next visibility...
Identifier
42967, 2017-063A
Orbit
GEO
Country
Flag of LULU / SES
Related business
Manufacturer
ADS/Bremen
Mission
Operational Commercial Communications
Bus & Motor
EUROSTAR 3000, R-4D-15
Mass
5,300 kg wet, ~3,000 kg dry
Launch date (UTC)
2017-10-11 (9 years ago)
Launch vehicle
FALCON 9
Launch site
Air Force Eastern Test Range (AFETR)
Object type
Payload
Rocket body
Debris
Shape & HBR
Box + 2 Pan, 17.5 m
Radar Cross Section
56.564 m², Large (>1 m²)

Expand to show TLE details & history
Last TLE update: 2 days ago

TLE from 2 days ago
0 ECHOSTAR 105/SES 11
1 42967U 17063A   26171.36003124 -.00000094  00000-0  00000+0 0  9994
2 42967   0.0149   3.9068 0002813  71.1261 218.1920  1.00271096 31757
Epoch: 2026-06-20T08:38Z
TLE epoch observation values (Epoch: 2026-06-20T08:38:26.699Z)
Latitude
-0.0324°
Longitude
-104.96975°
Altitude
35,795.652 km
Speed
3.074 km/s
True Right ascension
19h 32m 52s
True Declination
0° 01' 57"
Sunlit
Object was in daylight at epoch
Visualization orbit readout
Latitude
Unknown
Longitude
Unknown
Altitude
Unknown
Speed
Unknown
Apparent Right ascension
Unknown
Apparent Declination
Unknown
Sunlit
N/A
Visualization observer readout
Local Sidereal Time
23:07:31
Azimuth
Unknown
Elevation
Unknown
Doppler factor
Unknown
Orbital elements
Apogee altitude
35,799.72 km
Perigee altitude
35,775.997 km
Semi-major axis
42,165.995 km
Eccentricity
0.00028
Inclination
0.0149°
RAAN
3.9068°
Arg. of periapsis
71.1261°
True anomaly
218.17207°
Mean anomaly
218.192°
Eccentric anomaly
218.18204°
Mean motion
0.25067 °/min
Orbital period
1,436.16 mins
BSTAR
0
Loading maneuver chart data...
Computing Atmospheric mass density...
Loading historical data...
Loading historical data...
Loading historical data...
Loading historical data...
Loading historical data...
Loading historical data...
Loading historical data...
Other satellites on launch #63 in the year 2017 (2017-10-11 UTC)

Documentation

Showing up to 5 results
|